Phnom Penh, Cambodia

4:09 PM ICT on August 28, 2016 (GMT +0700)
Pochentong International

Weather History for VDPP - July, 2013

Change the Weather History Date:

Monday, July 1, 2013

  Actual Average Record
Temperature  
Mean Temperature 86 °F -  
Max Temperature 95 °F 88 °F 98 °F (2015)
Min Temperature 77 °F 77 °F 75 °F (1999)
Cooling Degree Days 21    
Growing Degree Days 36 (Base 50)    
Moisture  
Dew Point 73 °F    
Average Humidity 67    
Maximum Humidity 87    
Minimum Humidity 41    
Precipitation  
Precipitation 0.00 in - - ()
Sea Level Pressure  
Sea Level Pressure 29.64 in    
Wind  
Wind Speed 6 mph ()    
Max Wind Speed 12 mph    
Max Gust Speed -    
Visibility 5.8 miles    
Events Rain , Thunderstorm    
Averages and records for this station are not official NWS values.
T = Trace of Precipitation, MM = Missing Value Source: Averaged Metar Reports

Daily Weather History Graph

Daily Weather History Graph

Search for Another Location

Airport or City:

Trip Planner

Search our weather history database for the weather conditions in past years. The results will help you decide how hot, cold, wet, or windy it might be!

Date:

Astronomy

Jul. 01, 2013 Rise Set
Actual Time 5:40 AM ICT 6:28 PM ICT
Civil Twilight 5:17 AM ICT 6:51 PM ICT
Nautical Twilight 4:50 AM ICT 7:18 PM ICT
Astronomical Twilight 4:22 AM ICT 7:46 PM ICT
Moon 12:10 AM ICT (7/1) 12:48 PM ICT (7/1)
Length of Visible Light 13h 33m
Length of Day
12h 47m
Last Quarter, 40% of the Moon is Illuminated
Jul 1
Last Quarter
Jul 8
New
Jul 16
First Quarter
Jul 23
Full
Jul 30
Last Quarter

Hourly Weather History & Observations

Time (ICT) Temp. Heat Index Dew Point Humidity Pressure Visibility Wind Dir Wind Speed Gust Speed Precip Events Conditions
12:30 AM 82.4 °F 89.5 °F 75.2 °F 79% 29.68 in 6.2 mi WSW 5.8 mph - N/A   Partly Cloudy
1:00 AM 82.4 °F 89.5 °F 75.2 °F 79% 29.65 in 6.2 mi WSW 3.5 mph - N/A   Partly Cloudy
6:00 AM 80.6 °F 85.4 °F 73.4 °F 79% 29.62 in 6.2 mi West 4.6 mph - N/A   Partly Cloudy
7:00 AM 79 °F - 76 °F 87% 29.71 in 6 mi SW 2.2 mph - -   Partly Cloudy
7:00 AM 82.4 °F 88.2 °F 73.4 °F 74% 29.65 in 6.2 mi WSW 6.9 mph - N/A   Partly Cloudy
7:30 AM 84.2 °F 90.9 °F 73.4 °F 70% 29.68 in 6.2 mi West 9.2 mph - N/A   Partly Cloudy
8:00 AM 84.2 °F 90.9 °F 73.4 °F 70% 29.68 in 6.2 mi WSW 6.9 mph - N/A   Partly Cloudy
8:30 AM 86.0 °F 93.4 °F 73.4 °F 66% 29.68 in 6.2 mi West 10.4 mph - N/A   Partly Cloudy
9:00 AM 86.0 °F 91.8 °F 71.6 °F 62% 29.68 in 6.2 mi WSW 11.5 mph - N/A   Partly Cloudy
9:30 AM 87.8 °F 93.8 °F 71.6 °F 58% 29.68 in 6.2 mi West 8.1 mph - N/A   Partly Cloudy
10:00 AM 89.6 °F 98.2 °F 73.4 °F 59% 29.68 in 6.2 mi NW 5.8 mph - N/A   Partly Cloudy
10:30 AM 91.4 °F 98.4 °F 71.6 °F 52% 29.68 in 6.2 mi WNW 6.9 mph - N/A   Partly Cloudy
11:00 AM 91.4 °F 96.8 °F 69.8 °F 49% 29.68 in 6.2 mi NW 8.1 mph - N/A   Partly Cloudy
11:30 AM 91.4 °F 96.8 °F 69.8 °F 49% 29.65 in 6.2 mi WSW 5.8 mph - N/A   Partly Cloudy
12:00 PM 93.2 °F 100.5 °F 71.6 °F 49% 29.62 in 6.2 mi SSW 3.5 mph - N/A   Partly Cloudy
12:30 PM 93.2 °F 100.5 °F 71.6 °F 49% 29.62 in 6.2 mi NNW 5.8 mph - N/A   Partly Cloudy
1:00 PM 93.2 °F 98.8 °F 69.8 °F 46% 29.62 in 6.2 mi NW 6.9 mph - N/A   Partly Cloudy
1:30 PM 95.0 °F 99.5 °F 68.0 °F 41% 29.59 in 6.2 mi West 6.9 mph - N/A   Partly Cloudy
2:00 PM 93.2 °F 98.8 °F 69.8 °F 46% 29.59 in 6.2 mi NW 6.9 mph - N/A   Partly Cloudy
2:30 PM 93.2 °F 98.8 °F 69.8 °F 46% 29.56 in 6.2 mi NNW 5.8 mph - N/A   Partly Cloudy
3:00 PM 91.4 °F 100.1 °F 73.4 °F 55% 29.56 in 6.2 mi North 8.1 mph - N/A   Partly Cloudy
3:30 PM 93.2 °F 98.8 °F 69.8 °F 46% 29.56 in 6.2 mi ESE 2.3 mph - N/A   Partly Cloudy
4:00 PM 91.4 °F 98.4 °F 71.6 °F 52% 29.56 in 5.0 mi SE 8.1 mph - N/A Rain Rain
4:30 PM 86.0 °F 93.4 °F 73.4 °F 66% 29.56 in 4.3 mi WSW 11.5 mph - N/A Rain , Thunderstorm Light Thunderstorms and Rain
5:00 PM 80.6 °F 86.2 °F 75.2 °F 84% 29.59 in 3.1 mi NNW 10.4 mph - N/A Rain , Thunderstorm Thunderstorms and Rain
5:30 PM 78.8 °F - 73.4 °F 83% 29.59 in 5.0 mi WNW 6.9 mph - N/A Rain , Thunderstorm Light Thunderstorms and Rain
6:00 PM 82.4 °F 89.5 °F 75.2 °F 79% 29.59 in 5.6 mi South 1.2 mph - N/A   Scattered Clouds
6:30 PM 82.4 °F 89.5 °F 75.2 °F 79% 29.59 in 5.6 mi SW 4.6 mph - N/A   Scattered Clouds
7:00 PM 82.4 °F 90.9 °F 77.0 °F 84% 29.62 in 5.6 mi South 4.6 mph - N/A   Scattered Clouds
7:30 PM 84.2 °F 94.1 °F 77.0 °F 79% 29.62 in 5.6 mi SSW 4.6 mph - N/A   Scattered Clouds
8:00 PM 84.2 °F 94.1 °F 77.0 °F 79% 29.65 in 5.6 mi SW 4.6 mph - N/A   Scattered Clouds
8:30 PM 82.4 °F 90.9 °F 77.0 °F 84% 29.65 in 5.6 mi South 4.6 mph - N/A   Scattered Clouds
9:00 PM 82.4 °F 90.9 °F 77.0 °F 84% 29.68 in 5.6 mi SW 4.6 mph - N/A   Scattered Clouds
10:00 PM 82.4 °F 90.9 °F 77.0 °F 84% 29.68 in 5.6 mi SW 4.6 mph - N/A   Scattered Clouds
10:30 PM 84.2 °F 92.3 °F 75.2 °F 74% 29.68 in 5.6 mi WSW 5.8 mph - N/A   Scattered Clouds
11:00 PM 84.2 °F 92.3 °F 75.2 °F 74% 29.68 in 5.6 mi West 6.9 mph - N/A   Scattered Clouds
11:30 PM 82.4 °F 89.5 °F 75.2 °F 79% 29.68 in 5.6 mi SW 9.2 mph - N/A   Scattered Clouds